Weather History for Sarasota, FL

Change the Weather History Date:

Tuesday, December 4, 2012

  Actual Average Record
Temperature  
Mean Temperature 71 °F 66 °F  
Max Temperature 82 °F 75 °F 86 °F (1994)
Min Temperature 59 °F 56 °F 31 °F (1989)
Degree Days  
Heating Degree Days 0 3  
Month to date heating degree days 0 9  
Since 1 July heating degree days 41 42  
Cooling Degree Days 6 3  
Month to date cooling degree days 25 12  
Year to date cooling degree days 3749 3312  
Growing Degree Days 20 (Base 50)    
Moisture  
Dew Point 55 °F    
Average Humidity 66    
Maximum Humidity 90    
Minimum Humidity 33    
Precipitation  
Precipitation 0.00 in 0.07 in 1.51 in (1997)
Month to date precipitation 0.00 0.27  
Year to date precipitation 44.04 50.75  
Sea Level Pressure  
Sea Level Pressure 30.21 in    
Wind  
Wind Speed 7 mph (East)    
Max Wind Speed 16 mph    
Max Gust Speed 21 mph    
Visibility 10 miles    
Events      
T = Trace of Precipitation, MM = Missing Value Source: NWS Daily Summary

Daily Weather History Graph

Daily Weather History Graph

Search for Another Location

Airport:

Trip Planner

Search our weather history database for the weather conditions in past years. The results will help you decide how hot, cold, wet, or windy it might be!

Date:

Astronomy

Dec. 04, 2012 Rise Set
Actual Time 7:05 AM EST 5:35 PM EST
Civil Twilight 6:40 AM EST 6:01 PM EST
Nautical Twilight 6:11 AM EST 6:29 PM EST
Astronomical Twilight 5:42 AM EST 6:58 PM EST
Moon 11:01 PM EST (12/4) 11:16 AM EST (12/4)
Length of Visible Light 11h 20m
Length of Day
10h 30m
Waning Gibbous, 69% of the Moon is Illuminated
Dec 4
Waning Gibbous
Dec 6
Last Quarter
Dec 13
New
Dec 20
First Quarter
Dec 28
Full

Hourly Weather History & Observations

Time (EST) Temp. Dew Point Humidity Pressure Visibility Wind Dir Wind Speed Gust Speed Precip Events Conditions
12:53 AM 61.0 °F 57.0 °F 87% 30.22 in 10.0 mi ENE 4.6 mph - N/A   Clear
1:53 AM 61.0 °F 57.0 °F 87% 30.22 in 10.0 mi East 5.8 mph - N/A   Clear
2:53 AM 63.0 °F 57.9 °F 84% 30.21 in 10.0 mi East 6.9 mph - N/A   Overcast
3:53 AM 61.0 °F 57.0 °F 87% 30.21 in 10.0 mi East 5.8 mph - N/A   Scattered Clouds
4:53 AM 62.1 °F 57.9 °F 86% 30.20 in 10.0 mi ENE 5.8 mph - N/A   Mostly Cloudy
5:53 AM 61.0 °F 57.0 °F 87% 30.21 in 10.0 mi East 5.8 mph - N/A   Partly Cloudy
6:53 AM 59.0 °F 55.9 °F 90% 30.22 in 10.0 mi East 4.6 mph - N/A   Clear
7:53 AM 62.1 °F 57.9 °F 86% 30.24 in 10.0 mi ENE 5.8 mph - N/A   Clear
8:53 AM 66.9 °F 57.0 °F 70% 30.26 in 10.0 mi East 6.9 mph - N/A   Clear
9:53 AM 72.0 °F 55.9 °F 57% 30.28 in 10.0 mi East 8.1 mph - N/A   Clear
10:53 AM 75.9 °F 53.1 °F 45% 30.26 in 10.0 mi East 11.5 mph - N/A   Clear
11:53 AM 78.1 °F 48.9 °F 36% 30.24 in 10.0 mi ENE 9.2 mph - N/A   Clear
12:53 PM 79.0 °F 48.0 °F 34% 30.19 in 10.0 mi ENE 5.8 mph - N/A   Clear
1:53 PM 80.1 °F 48.9 °F 34% 30.17 in 10.0 mi SSE 11.5 mph 17.3 mph N/A   Clear
2:53 PM 81.0 °F 51.1 °F 35% 30.16 in 10.0 mi ENE 10.4 mph - N/A   Scattered Clouds
3:53 PM 78.1 °F 55.0 °F 45% 30.16 in 10.0 mi ESE 10.4 mph - N/A   Mostly Cloudy
4:53 PM 75.0 °F 55.9 °F 51% 30.17 in 10.0 mi East 9.2 mph - N/A   Mostly Cloudy
5:53 PM 73.0 °F 57.0 °F 57% 30.18 in 10.0 mi East 8.1 mph - N/A   Mostly Cloudy
6:53 PM 70.0 °F 57.0 °F 63% 30.19 in 10.0 mi East 5.8 mph - N/A   Mostly Cloudy
7:53 PM 69.1 °F 57.9 °F 68% 30.19 in 10.0 mi East 6.9 mph - N/A   Clear
8:53 PM 66.9 °F 55.9 °F 68% 30.19 in 10.0 mi East 5.8 mph - N/A   Partly Cloudy
9:53 PM 66.9 °F 55.9 °F 68% 30.19 in 10.0 mi East 9.2 mph - N/A   Scattered Clouds
10:53 PM 64.9 °F 55.9 °F 73% 30.18 in 10.0 mi East 6.9 mph - N/A   Clear
11:53 PM 63.0 °F 55.0 °F 75% 30.18 in 10.0 mi ENE 4.6 mph - N/A   Clear